User: anonymous
Location: Owatonna
(44.0840°N, 93.2260°W)
Time: 00:20:02
(UTC-05:00)
Language:

Tiangong 1 - Orbit

View from above orbital plane
View from above orbital plane
View from above satellite
View from above satellite

Ground track
Ground track

The orbit data is extracted from the following two-line orbital elements,

1 37820U 11053A   14108.81056503  .00053250  00000-0  46085-3 0  9487
2 37820 042.7729 311.5510 0012084 307.6155 165.6926 15.68258429146704
Epoch (UTC): 18 April 2014 19:27:12
Eccentricity: 0.0012084
inclination: 42.7729°
perigee height: 356 km
apogee height: 372 km
right ascension of ascending node: 311.5510°
argument of perigee: 307.6155°
revolutions per day: 15.68258429
mean anomaly at epoch: 165.6926°
orbit number at epoch: 14670

The dashed part of the orbit path shows where the satellite is in the earth's shadow,  

DLR